Time,TemperatureF,DewpointF,PressureIn,WindDirection,WindDirectionDegrees,WindSpeedMPH,WindSpeedGustMPH,Humidity,HourlyPrecipIn,Conditions,Clouds,dailyrainin,SoftwareType,DateUTC
2013-08-25 00:04:00,54.0,40.0,29.82,SE,144,3.0,0.0,59,0.00,,,0.00,WeatherTracker,2013-08-25 07:04:00,
2013-08-25 00:09:00,52.8,39.3,29.82,SE,144,0.0,4.0,60,0.00,,,0.00,WeatherTracker,2013-08-25 07:09:00,
2013-08-25 00:14:00,51.5,38.9,29.82,SSE,157,3.0,4.0,62,0.00,,,0.00,WeatherTracker,2013-08-25 07:14:00,
2013-08-25 00:19:00,51.7,39.1,29.83,SSE,158,4.0,6.0,62,0.00,,,0.00,WeatherTracker,2013-08-25 07:19:00,
2013-08-25 00:24:00,50.9,38.8,29.82,SSE,164,1.0,6.0,63,0.00,,,0.00,WeatherTracker,2013-08-25 07:24:00,
2013-08-25 00:29:00,51.2,38.6,29.82,SSE,164,0.0,0.0,62,0.00,,,0.00,WeatherTracker,2013-08-25 07:29:00,
2013-08-25 00:34:00,50.9,39.2,29.83,SSE,164,0.0,2.0,64,0.00,,,0.00,WeatherTracker,2013-08-25 07:34:00,
2013-08-25 00:39:00,51.1,38.9,29.83,SSE,164,0.0,5.0,63,0.00,,,0.00,WeatherTracker,2013-08-25 07:39:00,
2013-08-25 00:44:00,52.3,38.8,29.83,SSE,167,0.0,5.0,60,0.00,,,0.00,WeatherTracker,2013-08-25 07:44:00,
2013-08-25 00:49:00,53.3,38.5,29.82,SSE,167,0.0,3.0,57,0.00,,,0.00,WeatherTracker,2013-08-25 07:49:00,
2013-08-25 00:54:00,53.3,39.3,29.82,SSE,167,0.0,3.0,59,0.00,,,0.00,WeatherTracker,2013-08-25 07:54:00,
2013-08-25 00:59:00,52.2,38.7,29.83,SE,144,0.0,3.0,60,0.00,,,0.00,WeatherTracker,2013-08-25 07:59:00,
2013-08-25 01:04:00,51.6,39.0,29.83,SSE,152,3.0,5.0,62,0.00,,,0.00,WeatherTracker,2013-08-25 08:04:00,
2013-08-25 01:09:00,50.9,39.2,29.83,SSE,153,0.0,5.0,64,0.00,,,0.00,WeatherTracker,2013-08-25 08:09:00,
2013-08-25 01:14:00,50.4,38.7,29.83,SSE,153,0.0,5.0,64,0.00,,,0.00,WeatherTracker,2013-08-25 08:14:00,
2013-08-25 01:19:00,49.9,38.2,29.83,SSE,153,0.0,2.0,64,0.00,,,0.00,WeatherTracker,2013-08-25 08:19:00,
2013-08-25 01:24:00,50.4,38.3,29.82,SE,126,0.0,2.0,63,0.00,,,0.00,WeatherTracker,2013-08-25 08:24:00,
2013-08-25 01:29:00,50.8,37.0,29.82,WSW,244,2.0,4.0,59,0.00,,,0.00,WeatherTracker,2013-08-25 08:29:00,
2013-08-25 01:34:00,52.1,37.3,29.82,SW,214,2.0,6.0,57,0.00,,,0.00,WeatherTracker,2013-08-25 08:34:00,
2013-08-25 01:39:00,52.5,38.2,29.82,SSE,147,3.0,6.0,58,0.00,,,0.00,WeatherTracker,2013-08-25 08:39:00,
2013-08-25 01:44:00,51.7,38.3,29.82,SE,138,3.0,5.0,60,0.00,,,0.00,WeatherTracker,2013-08-25 08:44:00,
2013-08-25 01:49:00,49.9,37.8,29.82,SSE,150,2.0,5.0,63,0.00,,,0.00,WeatherTracker,2013-08-25 08:49:00,
2013-08-25 01:54:00,49.6,37.5,29.81,SSE,150,0.0,5.0,63,0.00,,,0.00,WeatherTracker,2013-08-25 08:54:00,
2013-08-25 02:00:00,49.2,37.9,29.82,SSE,150,3.0,4.0,65,0.00,,,0.00,WeatherTracker,2013-08-25 09:00:00,
2013-08-25 02:05:00,49.3,37.6,29.82,SSE,150,0.0,4.0,64,0.00,,,0.00,WeatherTracker,2013-08-25 09:05:00,
2013-08-25 02:10:00,49.8,38.1,29.82,ESE,111,3.0,4.0,64,0.00,,,0.00,WeatherTracker,2013-08-25 09:10:00,
2013-08-25 02:15:00,49.3,38.0,29.82,East,98,0.0,4.0,65,0.00,,,0.00,WeatherTracker,2013-08-25 09:15:00,
2013-08-25 02:20:00,48.5,37.3,29.82,ESE,107,0.0,3.0,65,0.00,,,0.00,WeatherTracker,2013-08-25 09:20:00,
2013-08-25 02:25:00,48.5,37.3,29.82,ESE,107,0.0,3.0,65,0.00,,,0.00,WeatherTracker,2013-08-25 09:25:00,
2013-08-25 02:30:00,48.7,37.9,29.82,ESE,102,2.0,3.0,66,0.00,,,0.00,WeatherTracker,2013-08-25 09:30:00,
2013-08-25 02:35:00,50.0,37.9,29.82,SE,130,4.0,4.0,63,0.00,,,0.00,WeatherTracker,2013-08-25 09:35:00,
2013-08-25 02:40:00,49.0,38.1,29.82,West,259,0.0,5.0,66,0.00,,,0.00,WeatherTracker,2013-08-25 09:40:00,
2013-08-25 02:45:00,48.5,37.7,29.82,West,260,3.0,5.0,66,0.00,,,0.00,WeatherTracker,2013-08-25 09:45:00,
2013-08-25 02:50:00,48.5,37.3,29.82,West,260,0.0,4.0,65,0.00,,,0.00,WeatherTracker,2013-08-25 09:50:00,
2013-08-25 02:55:00,49.2,36.7,29.82,West,260,3.0,3.0,62,0.00,,,0.00,WeatherTracker,2013-08-25 09:55:00,
2013-08-25 03:00:00,49.6,36.7,29.82,WNW,287,4.0,4.0,61,0.00,,,0.00,WeatherTracker,2013-08-25 10:00:00,
2013-08-25 03:05:00,50.0,37.5,29.82,North,349,2.0,5.0,62,0.00,,,0.00,WeatherTracker,2013-08-25 10:05:00,
2013-08-25 03:10:00,49.7,36.0,29.82,NNW,346,2.0,5.0,59,0.00,,,0.00,WeatherTracker,2013-08-25 10:10:00,
2013-08-25 03:15:00,49.5,35.8,29.82,NNW,346,2.0,4.0,59,0.00,,,0.00,WeatherTracker,2013-08-25 10:15:00,
2013-08-25 03:20:00,50.0,36.7,29.82,West,272,4.0,4.0,60,0.00,,,0.00,WeatherTracker,2013-08-25 10:20:00,
2013-08-25 03:25:00,50.0,36.7,29.82,West,279,3.0,5.0,60,0.00,,,0.00,WeatherTracker,2013-08-25 10:25:00,
2013-08-25 03:30:00,50.2,36.9,29.82,WNW,289,3.0,6.0,60,0.00,,,0.00,WeatherTracker,2013-08-25 10:30:00,
2013-08-25 03:35:00,49.0,37.0,29.83,SE,131,0.0,6.0,63,0.00,,,0.00,WeatherTracker,2013-08-25 10:35:00,
2013-08-25 03:40:00,48.7,36.7,29.83,SE,131,0.0,5.0,63,0.00,,,0.00,WeatherTracker,2013-08-25 10:40:00,
2013-08-25 03:46:00,48.3,36.7,29.83,SE,130,4.0,4.0,64,0.00,,,0.00,WeatherTracker,2013-08-25 10:46:00,
2013-08-25 03:51:00,49.1,37.1,29.83,North,357,1.0,5.0,63,0.00,,,0.00,WeatherTracker,2013-08-25 10:51:00,
2013-08-25 03:56:00,49.0,37.8,29.83,WNW,283,0.0,6.0,65,0.00,,,0.00,WeatherTracker,2013-08-25 10:56:00,
2013-08-25 04:01:00,48.7,37.1,29.83,NW,316,2.0,6.0,64,0.00,,,0.00,WeatherTracker,2013-08-25 11:01:00,
2013-08-25 04:06:00,48.8,37.2,29.83,WSW,248,2.0,4.0,64,0.00,,,0.00,WeatherTracker,2013-08-25 11:06:00,
2013-08-25 04:11:00,48.4,37.2,29.83,WSW,239,2.0,4.0,65,0.00,,,0.00,WeatherTracker,2013-08-25 11:11:00,
2013-08-25 04:16:00,47.4,36.6,29.83,SSE,164,3.0,4.0,66,0.00,,,0.00,WeatherTracker,2013-08-25 11:16:00,
2013-08-25 04:21:00,47.7,36.5,29.82,SSE,164,0.0,5.0,65,0.00,,,0.00,WeatherTracker,2013-08-25 11:21:00,
2013-08-25 04:26:00,47.8,36.2,29.82,South,183,3.0,6.0,64,0.00,,,0.00,WeatherTracker,2013-08-25 11:26:00,
2013-08-25 04:31:00,48.7,37.1,29.82,WSW,248,0.0,6.0,64,0.00,,,0.00,WeatherTracker,2013-08-25 11:31:00,
2013-08-25 04:36:00,48.6,37.0,29.82,WSW,248,1.0,5.0,64,0.00,,,0.00,WeatherTracker,2013-08-25 11:36:00,
2013-08-25 04:41:00,47.7,36.9,29.83,South,183,3.0,3.0,66,0.00,,,0.00,WeatherTracker,2013-08-25 11:41:00,
2013-08-25 04:46:00,47.0,36.6,29.83,South,183,0.0,6.0,67,0.00,,,0.00,WeatherTracker,2013-08-25 11:46:00,
2013-08-25 04:51:00,46.7,36.3,29.83,South,179,2.0,6.0,67,0.00,,,0.00,WeatherTracker,2013-08-25 11:51:00,
2013-08-25 04:56:00,46.1,36.5,29.84,South,181,2.0,4.0,69,0.00,,,0.00,WeatherTracker,2013-08-25 11:56:00,
2013-08-25 05:01:00,45.9,36.7,29.83,South,182,1.0,7.0,70,0.00,,,0.00,WeatherTracker,2013-08-25 12:01:00,
2013-08-25 05:06:00,46.1,36.5,29.83,South,181,2.0,7.0,69,0.00,,,0.00,WeatherTracker,2013-08-25 12:06:00,
2013-08-25 05:11:00,46.8,36.8,29.83,South,181,0.0,3.0,68,0.00,,,0.00,WeatherTracker,2013-08-25 12:11:00,
2013-08-25 05:16:00,47.0,36.2,29.83,South,182,2.0,3.0,66,0.00,,,0.00,WeatherTracker,2013-08-25 12:16:00,
2013-08-25 05:21:00,47.7,36.9,29.83,South,182,2.0,3.0,66,0.00,,,0.00,WeatherTracker,2013-08-25 12:21:00,
2013-08-25 05:26:00,47.1,36.3,29.83,South,182,3.0,3.0,66,0.00,,,0.00,WeatherTracker,2013-08-25 12:26:00,
2013-08-25 05:31:00,46.4,36.0,29.83,South,182,0.0,4.0,67,0.00,,,0.00,WeatherTracker,2013-08-25 12:31:00,
2013-08-25 05:36:00,45.7,36.1,29.83,South,182,2.0,4.0,69,0.00,,,0.00,WeatherTracker,2013-08-25 12:36:00,
2013-08-25 05:41:00,44.7,35.5,29.83,South,181,0.0,3.0,70,0.00,,,0.00,WeatherTracker,2013-08-25 12:41:00,
2013-08-25 05:46:00,42.5,34.8,29.83,South,182,0.0,4.0,74,0.00,,,0.00,WeatherTracker,2013-08-25 12:46:00,
2013-08-25 05:51:00,42.0,35.0,29.84,South,182,0.0,4.0,76,0.00,,,0.00,WeatherTracker,2013-08-25 12:51:00,
2013-08-25 05:56:00,42.2,35.5,29.84,South,182,0.0,4.0,77,0.00,,,0.00,WeatherTracker,2013-08-25 12:56:00,
2013-08-25 06:01:00,42.6,35.9,29.84,South,182,0.0,3.0,77,0.00,,,0.00,WeatherTracker,2013-08-25 13:01:00,
2013-08-25 06:07:00,42.5,35.1,29.85,South,182,1.0,3.0,75,0.00,,,0.00,WeatherTracker,2013-08-25 13:07:00,
2013-08-25 06:12:00,42.3,35.3,29.84,South,182,0.0,3.0,76,0.00,,,0.00,WeatherTracker,2013-08-25 13:12:00,
2013-08-25 06:17:00,42.3,35.3,29.85,South,181,2.0,2.0,76,0.00,,,0.00,WeatherTracker,2013-08-25 13:17:00,
2013-08-25 06:22:00,42.4,36.0,29.85,SSE,160,0.0,3.0,78,0.00,,,0.00,WeatherTracker,2013-08-25 13:22:00,
2013-08-25 06:27:00,42.5,36.1,29.86,SSE,160,0.0,3.0,78,0.00,,,0.00,WeatherTracker,2013-08-25 13:27:00,
2013-08-25 06:32:00,42.5,36.1,29.85,SSE,160,0.0,1.0,78,0.00,,,0.00,WeatherTracker,2013-08-25 13:32:00,
2013-08-25 06:37:00,42.8,36.4,29.86,SSE,160,0.0,1.0,78,0.00,,,0.00,WeatherTracker,2013-08-25 13:37:00,
2013-08-25 06:42:00,43.1,36.4,29.86,SSE,160,0.0,2.0,77,0.00,,,0.00,WeatherTracker,2013-08-25 13:42:00,
2013-08-25 06:47:00,43.3,36.6,29.86,SSE,160,0.0,2.0,77,0.00,,,0.00,WeatherTracker,2013-08-25 13:47:00,
2013-08-25 06:52:00,43.5,36.8,29.86,SSE,160,1.0,2.0,77,0.00,,,0.00,WeatherTracker,2013-08-25 13:52:00,
2013-08-25 06:57:00,44.1,37.4,29.86,SSE,160,1.0,3.0,77,0.00,,,0.00,WeatherTracker,2013-08-25 13:57:00,
2013-08-25 07:02:00,44.8,37.7,29.87,WNW,295,0.0,4.0,76,0.00,,,0.00,WeatherTracker,2013-08-25 14:02:00,
2013-08-25 07:07:00,45.5,37.0,29.86,NW,308,2.0,5.0,72,0.00,,,0.00,WeatherTracker,2013-08-25 14:07:00,
2013-08-25 07:12:00,46.8,38.3,29.86,NW,304,3.0,5.0,72,0.00,,,0.00,WeatherTracker,2013-08-25 14:12:00,
2013-08-25 07:17:00,47.3,37.7,29.86,NW,323,4.0,6.0,69,0.00,,,0.00,WeatherTracker,2013-08-25 14:17:00,
2013-08-25 07:22:00,47.8,39.6,29.86,NW,322,3.0,6.0,73,0.00,,,0.00,WeatherTracker,2013-08-25 14:22:00,
2013-08-25 07:27:00,48.2,40.3,29.86,NW,323,3.0,5.0,74,0.00,,,0.00,WeatherTracker,2013-08-25 14:27:00,
2013-08-25 07:32:00,48.8,40.2,29.86,NW,323,2.0,5.0,72,0.00,,,0.00,WeatherTracker,2013-08-25 14:32:00,
2013-08-25 07:37:00,49.5,41.2,29.86,NW,324,0.0,5.0,73,0.00,,,0.00,WeatherTracker,2013-08-25 14:37:00,
2013-08-25 07:42:00,50.0,40.6,29.86,NW,324,1.0,4.0,70,0.00,,,0.00,WeatherTracker,2013-08-25 14:42:00,
2013-08-25 07:47:00,50.4,40.6,29.86,NW,324,0.0,3.0,69,0.00,,,0.00,WeatherTracker,2013-08-25 14:47:00,
2013-08-25 07:52:00,50.7,40.1,29.86,NW,324,0.0,1.0,67,0.00,,,0.00,WeatherTracker,2013-08-25 14:52:00,
2013-08-25 07:57:00,50.9,39.6,29.86,NW,324,0.0,0.0,65,0.00,,,0.00,WeatherTracker,2013-08-25 14:57:00,
2013-08-25 08:02:00,51.1,40.5,29.86,NW,323,0.0,0.0,67,0.00,,,0.00,WeatherTracker,2013-08-25 15:02:00,
2013-08-25 08:07:00,51.2,39.8,29.86,NW,323,0.0,0.0,65,0.00,,,0.00,WeatherTracker,2013-08-25 15:07:00,
2013-08-25 08:12:00,51.3,39.9,29.86,NW,324,0.0,2.0,65,0.00,,,0.00,WeatherTracker,2013-08-25 15:12:00,
2013-08-25 08:17:00,51.8,40.8,29.86,WNW,284,0.0,2.0,66,0.00,,,0.00,WeatherTracker,2013-08-25 15:17:00,
2013-08-25 08:22:00,52.5,41.1,29.86,WNW,284,1.0,3.0,65,0.00,,,0.00,WeatherTracker,2013-08-25 15:22:00,
2013-08-25 08:27:00,53.6,40.9,29.85,WNW,285,0.0,3.0,62,0.00,,,0.00,WeatherTracker,2013-08-25 15:27:00,
2013-08-25 08:33:00,54.4,42.5,29.85,WNW,287,0.0,2.0,64,0.00,,,0.00,WeatherTracker,2013-08-25 15:33:00,
2013-08-25 08:38:00,54.9,42.1,29.85,WNW,287,0.0,3.0,62,0.00,,,0.00,WeatherTracker,2013-08-25 15:38:00,
2013-08-25 08:43:00,55.4,41.3,29.85,WNW,287,0.0,3.0,59,0.00,,,0.00,WeatherTracker,2013-08-25 15:43:00,
2013-08-25 08:48:00,56.3,41.7,29.85,WNW,288,4.0,4.0,58,0.00,,,0.00,WeatherTracker,2013-08-25 15:48:00,
2013-08-25 08:53:00,56.9,40.9,29.85,WNW,288,2.0,5.0,55,0.00,,,0.00,WeatherTracker,2013-08-25 15:53:00,
2013-08-25 08:58:00,57.6,41.1,29.85,WNW,289,2.0,5.0,54,0.00,,,0.00,WeatherTracker,2013-08-25 15:58:00,
2013-08-25 09:03:00,58.2,40.7,29.85,WNW,293,2.0,5.0,52,0.00,,,0.00,WeatherTracker,2013-08-25 16:03:00,
2013-08-25 09:08:00,58.8,41.2,29.85,NNW,331,4.0,7.0,52,0.00,,,0.00,WeatherTracker,2013-08-25 16:08:00,
2013-08-25 09:13:00,59.4,41.8,29.85,NW,325,2.0,7.0,52,0.00,,,0.00,WeatherTracker,2013-08-25 16:13:00,
2013-08-25 09:18:00,60.2,42.5,29.85,NNW,341,0.0,6.0,52,0.00,,,0.00,WeatherTracker,2013-08-25 16:18:00,
2013-08-25 09:23:00,60.7,41.9,29.84,NNW,331,3.0,6.0,50,0.00,,,0.00,WeatherTracker,2013-08-25 16:23:00,
2013-08-25 09:28:00,61.0,42.7,29.84,NW,314,3.0,7.0,51,0.00,,,0.00,WeatherTracker,2013-08-25 16:28:00,
2013-08-25 09:33:00,61.4,43.6,29.84,NW,318,6.0,7.0,52,0.00,,,0.00,WeatherTracker,2013-08-25 16:33:00,
2013-08-25 09:38:00,61.9,45.1,29.84,NNW,339,3.0,9.0,54,0.00,,,0.00,WeatherTracker,2013-08-25 16:38:00,
2013-08-25 09:43:00,62.7,44.8,29.84,NNW,337,3.0,9.0,52,0.00,,,0.00,WeatherTracker,2013-08-25 16:43:00,
2013-08-25 09:48:00,63.6,44.6,29.83,NNW,345,4.0,6.0,50,0.00,,,0.00,WeatherTracker,2013-08-25 16:48:00,
2013-08-25 09:53:00,64.6,45.5,29.83,NNW,328,0.0,6.0,50,0.00,,,0.00,WeatherTracker,2013-08-25 16:53:00,
2013-08-25 09:58:00,65.8,43.3,29.83,NNW,328,0.0,5.0,44,0.00,,,0.00,WeatherTracker,2013-08-25 16:58:00,
2013-08-25 10:03:00,66.9,47.1,29.83,SSW,203,0.0,3.0,49,0.00,,,0.00,WeatherTracker,2013-08-25 17:03:00,
2013-08-25 10:08:00,67.4,44.1,29.83,SW,234,0.0,4.0,43,0.00,,,0.00,WeatherTracker,2013-08-25 17:08:00,
2013-08-25 10:13:00,67.8,44.5,29.83,South,181,6.0,6.0,43,0.00,,,0.00,WeatherTracker,2013-08-25 17:13:00,
2013-08-25 10:18:00,68.6,44.6,29.83,South,188,0.0,7.0,42,0.00,,,0.00,WeatherTracker,2013-08-25 17:18:00,
2013-08-25 10:23:00,69.7,44.3,29.83,South,188,2.0,7.0,40,0.00,,,0.00,WeatherTracker,2013-08-25 17:23:00,
2013-08-25 10:28:00,70.8,40.3,29.82,ESE,121,17.0,17.0,33,0.00,,,0.00,WeatherTracker,2013-08-25 17:28:00,
2013-08-25 10:33:00,72.3,45.3,29.82,South,174,11.0,28.0,38,0.00,,,0.00,WeatherTracker,2013-08-25 17:33:00,
2013-08-25 10:38:00,72.1,42.9,29.82,SE,144,9.0,28.0,35,0.00,,,0.00,WeatherTracker,2013-08-25 17:38:00,
2013-08-25 10:43:00,72.4,42.4,29.82,SSE,165,17.0,17.0,34,0.00,,,0.00,WeatherTracker,2013-08-25 17:43:00,
2013-08-25 10:48:00,72.4,42.4,29.82,South,179,10.0,22.0,34,0.00,,,0.00,WeatherTracker,2013-08-25 17:48:00,
2013-08-25 10:54:00,72.8,43.5,29.82,South,183,15.0,28.0,35,0.00,,,0.00,WeatherTracker,2013-08-25 17:54:00,
2013-08-25 10:59:00,73.0,41.4,29.82,South,177,12.0,28.0,32,0.00,,,0.00,WeatherTracker,2013-08-25 17:59:00,
2013-08-25 11:04:00,73.2,41.6,29.82,South,171,9.0,25.0,32,0.00,,,0.00,WeatherTracker,2013-08-25 18:04:00,
2013-08-25 11:09:00,73.9,43.7,29.82,SSE,164,14.0,25.0,34,0.00,,,0.00,WeatherTracker,2013-08-25 18:09:00,
2013-08-25 11:13:00,74.2,43.2,29.82,South,175,11.0,19.0,33,0.00,,,0.00,WeatherTracker,2013-08-25 18:13:00,
2013-08-25 11:19:00,74.3,44.1,29.82,South,173,10.0,20.0,34,0.00,,,0.00,WeatherTracker,2013-08-25 18:19:00,
2013-08-25 11:24:00,74.7,42.9,29.82,SSW,207,11.0,22.0,32,0.00,,,0.00,WeatherTracker,2013-08-25 18:24:00,
2013-08-25 11:29:00,74.9,43.0,29.82,SSE,162,12.0,22.0,32,0.00,,,0.00,WeatherTracker,2013-08-25 18:29:00,
2013-08-25 11:34:00,74.9,42.2,29.81,SSW,198,3.0,21.0,31,0.00,,,0.00,WeatherTracker,2013-08-25 18:34:00,
2013-08-25 11:39:00,74.9,42.2,29.81,South,174,12.0,21.0,31,0.00,,,0.00,WeatherTracker,2013-08-25 18:39:00,
2013-08-25 11:44:00,74.9,41.4,29.81,South,174,11.0,21.0,30,0.00,,,0.00,WeatherTracker,2013-08-25 18:44:00,
2013-08-25 11:49:00,75.3,45.0,29.80,South,183,16.0,21.0,34,0.00,,,0.00,WeatherTracker,2013-08-25 18:49:00,
2013-08-25 11:54:00,75.5,41.9,29.81,SSE,152,10.0,18.0,30,0.00,,,0.00,WeatherTracker,2013-08-25 18:54:00,
2013-08-25 11:59:00,75.2,42.5,29.81,South,171,6.0,20.0,31,0.00,,,0.00,WeatherTracker,2013-08-25 18:59:00,
2013-08-25 12:04:00,75.6,42.8,29.81,SSE,164,10.0,22.0,31,0.00,,,0.00,WeatherTracker,2013-08-25 19:04:00,
2013-08-25 12:09:00,75.5,42.7,29.81,South,187,9.0,22.0,31,0.00,,,0.00,WeatherTracker,2013-08-25 19:09:00,
2013-08-25 12:14:00,75.5,41.9,29.81,South,181,15.0,20.0,30,0.00,,,0.00,WeatherTracker,2013-08-25 19:14:00,
2013-08-25 12:19:00,75.6,42.0,29.81,SSE,165,12.0,29.0,30,0.00,,,0.00,WeatherTracker,2013-08-25 19:19:00,
2013-08-25 12:24:00,76.6,43.7,29.80,SSE,167,10.0,29.0,31,0.00,,,0.00,WeatherTracker,2013-08-25 19:24:00,
2013-08-25 12:29:00,76.2,41.6,29.80,SSE,167,17.0,22.0,29,0.00,,,0.00,WeatherTracker,2013-08-25 19:29:00,
2013-08-25 12:34:00,76.4,40.9,29.80,South,177,24.0,24.0,28,0.00,,,0.00,WeatherTracker,2013-08-25 19:34:00,
2013-08-25 12:39:00,76.7,40.2,29.80,SSW,192,14.0,28.0,27,0.00,,,0.00,WeatherTracker,2013-08-25 19:39:00,
2013-08-25 12:44:00,77.3,41.6,29.80,South,171,24.0,29.0,28,0.00,,,0.00,WeatherTracker,2013-08-25 19:44:00,
2013-08-25 12:49:00,76.8,39.3,29.80,WSW,237,7.0,29.0,26,0.00,,,0.00,WeatherTracker,2013-08-25 19:49:00,
2013-08-25 12:54:00,77.0,42.3,29.80,SSE,168,27.0,29.0,29,0.00,,,0.00,WeatherTracker,2013-08-25 19:54:00,
2013-08-25 12:59:00,77.1,41.5,29.81,South,180,18.0,29.0,28,0.00,,,0.00,WeatherTracker,2013-08-25 19:59:00,
2013-08-25 13:04:00,77.3,39.7,29.80,SSE,167,24.0,28.0,26,0.00,,,0.00,WeatherTracker,2013-08-25 20:04:00,
2013-08-25 13:09:00,77.8,42.1,29.80,South,171,20.0,33.0,28,0.00,,,0.00,WeatherTracker,2013-08-25 20:09:00,
2013-08-25 13:14:00,77.2,37.6,29.80,South,181,16.0,33.0,24,0.00,,,0.00,WeatherTracker,2013-08-25 20:14:00,
2013-08-25 13:19:00,77.2,41.6,29.80,SSW,195,25.0,30.0,28,0.00,,,0.00,WeatherTracker,2013-08-25 20:19:00,
2013-08-25 13:25:00,77.1,41.5,29.80,South,177,19.0,33.0,28,0.00,,,0.00,WeatherTracker,2013-08-25 20:25:00,
2013-08-25 13:30:00,77.0,41.4,29.80,SSW,210,17.0,29.0,28,0.00,,,0.00,WeatherTracker,2013-08-25 20:30:00,
2013-08-25 13:35:00,76.8,43.9,29.80,SSE,168,9.0,26.0,31,0.00,,,0.00,WeatherTracker,2013-08-25 20:35:00,
2013-08-25 13:40:00,77.5,42.7,29.80,South,179,8.0,21.0,29,0.00,,,0.00,WeatherTracker,2013-08-25 20:40:00,
2013-08-25 13:45:00,77.7,42.0,29.80,SSW,196,20.0,25.0,28,0.00,,,0.00,WeatherTracker,2013-08-25 20:45:00,
2013-08-25 13:50:00,77.5,41.8,29.80,South,182,16.0,26.0,28,0.00,,,0.00,WeatherTracker,2013-08-25 20:50:00,
2013-08-25 13:55:00,77.2,43.3,29.80,SSW,192,13.0,26.0,30,0.00,,,0.00,WeatherTracker,2013-08-25 20:55:00,
2013-08-25 14:00:00,76.8,42.1,29.80,South,187,16.0,30.0,29,0.00,,,0.00,WeatherTracker,2013-08-25 21:00:00,
2013-08-25 14:05:00,77.1,41.5,29.80,South,177,22.0,30.0,28,0.00,,,0.00,WeatherTracker,2013-08-25 21:05:00,
2013-08-25 14:10:00,77.0,42.3,29.80,South,172,13.0,24.0,29,0.00,,,0.00,WeatherTracker,2013-08-25 21:10:00,
2013-08-25 14:15:00,77.5,43.6,29.80,South,179,15.0,24.0,30,0.00,,,0.00,WeatherTracker,2013-08-25 21:15:00,
2013-08-25 14:20:00,77.3,40.7,29.80,South,179,23.0,23.0,27,0.00,,,0.00,WeatherTracker,2013-08-25 21:20:00,
2013-08-25 14:25:00,77.7,42.0,29.80,South,179,14.0,23.0,28,0.00,,,0.00,WeatherTracker,2013-08-25 21:25:00,
2013-08-25 14:30:00,77.3,43.4,29.79,South,174,21.0,23.0,30,0.00,,,0.00,WeatherTracker,2013-08-25 21:30:00,
2013-08-25 14:35:00,77.6,42.8,29.79,South,176,24.0,24.0,29,0.00,,,0.00,WeatherTracker,2013-08-25 21:35:00,
2013-08-25 14:40:00,77.4,42.6,29.79,South,175,14.0,27.0,29,0.00,,,0.00,WeatherTracker,2013-08-25 21:40:00,
2013-08-25 14:45:00,77.4,41.7,29.79,South,175,11.0,27.0,28,0.00,,,0.00,WeatherTracker,2013-08-25 21:45:00,
2013-08-25 14:50:00,77.3,42.5,29.79,South,171,22.0,26.0,29,0.00,,,0.00,WeatherTracker,2013-08-25 21:50:00,
2013-08-25 14:55:00,77.1,41.5,29.80,SSE,154,21.0,27.0,28,0.00,,,0.00,WeatherTracker,2013-08-25 21:55:00,
2013-08-25 15:01:00,76.8,40.3,29.79,South,169,12.0,27.0,27,0.00,,,0.00,WeatherTracker,2013-08-25 22:01:00,
2013-08-25 15:06:00,76.8,40.3,29.78,SSE,164,9.0,32.0,27,0.00,,,0.00,WeatherTracker,2013-08-25 22:06:00,
2013-08-25 15:11:00,77.1,40.5,29.79,SSE,167,16.0,32.0,27,0.00,,,0.00,WeatherTracker,2013-08-25 22:11:00,
2013-08-25 15:16:00,77.1,42.4,29.79,SE,145,11.0,30.0,29,0.00,,,0.00,WeatherTracker,2013-08-25 22:16:00,
2013-08-25 15:21:00,76.8,41.2,29.78,SSE,167,11.0,29.0,28,0.00,,,0.00,WeatherTracker,2013-08-25 22:21:00,
2013-08-25 15:26:00,75.7,42.1,29.78,SSE,161,13.0,25.0,30,0.00,,,0.00,WeatherTracker,2013-08-25 22:26:00,
2013-08-25 15:31:00,75.6,41.1,29.78,SE,131,10.0,29.0,29,0.00,,,0.00,WeatherTracker,2013-08-25 22:31:00,
2013-08-25 15:36:00,75.0,40.6,29.79,South,175,27.0,33.0,29,0.00,,,0.00,WeatherTracker,2013-08-25 22:36:00,
2013-08-25 15:41:00,75.3,40.8,29.78,SE,135,12.0,33.0,29,0.00,,,0.00,WeatherTracker,2013-08-25 22:41:00,
2013-08-25 15:46:00,75.8,41.3,29.78,South,177,11.0,32.0,29,0.00,,,0.00,WeatherTracker,2013-08-25 22:46:00,
2013-08-25 15:51:00,75.0,40.6,29.78,South,185,19.0,28.0,29,0.00,,,0.00,WeatherTracker,2013-08-25 22:51:00,
2013-08-25 15:56:00,75.4,43.5,29.78,SSE,166,16.0,31.0,32,0.00,,,0.00,WeatherTracker,2013-08-25 22:56:00,
2013-08-25 16:01:00,75.5,41.9,29.78,SSE,164,6.0,31.0,30,0.00,,,0.00,WeatherTracker,2013-08-25 23:01:00,
2013-08-25 16:06:00,76.3,42.6,29.78,SSE,164,15.0,26.0,30,0.00,,,0.00,WeatherTracker,2013-08-25 23:06:00,
2013-08-25 16:11:00,76.8,42.1,29.78,South,184,7.0,28.0,29,0.00,,,0.00,WeatherTracker,2013-08-25 23:11:00,
2013-08-25 16:16:00,76.5,41.9,29.78,South,179,13.0,28.0,29,0.00,,,0.00,WeatherTracker,2013-08-25 23:16:00,
2013-08-25 16:21:00,76.6,41.9,29.78,South,169,18.0,25.0,29,0.00,,,0.00,WeatherTracker,2013-08-25 23:21:00,
2013-08-25 16:27:00,76.3,42.6,29.78,South,189,17.0,25.0,30,0.00,,,0.00,WeatherTracker,2013-08-25 23:27:00,
2013-08-25 16:32:00,76.3,41.7,29.77,South,172,7.0,27.0,29,0.00,,,0.00,WeatherTracker,2013-08-25 23:32:00,
2013-08-25 16:37:00,75.8,43.0,29.78,South,176,10.0,27.0,31,0.00,,,0.00,WeatherTracker,2013-08-25 23:37:00,
2013-08-25 16:42:00,74.9,43.8,29.78,South,189,7.0,24.0,33,0.00,,,0.00,WeatherTracker,2013-08-25 23:42:00,
2013-08-25 16:47:00,76.0,42.3,29.78,South,170,12.0,24.0,30,0.00,,,0.00,WeatherTracker,2013-08-25 23:47:00,
2013-08-25 16:52:00,75.6,42.8,29.78,SSE,163,10.0,19.0,31,0.00,,,0.00,WeatherTracker,2013-08-25 23:52:00,
2013-08-25 16:57:00,75.3,42.6,29.78,South,169,5.0,21.0,31,0.00,,,0.00,WeatherTracker,2013-08-25 23:57:00,
2013-08-25 17:02:00,75.2,40.7,29.78,SSW,212,6.0,21.0,29,0.00,,,0.00,WeatherTracker,2013-08-26 00:02:00,
2013-08-25 17:07:00,75.5,41.0,29.79,South,185,7.0,25.0,29,0.00,,,0.00,WeatherTracker,2013-08-26 00:07:00,
2013-08-25 17:12:00,75.6,42.8,29.78,South,171,8.0,25.0,31,0.00,,,0.00,WeatherTracker,2013-08-26 00:12:00,
2013-08-25 17:17:00,76.0,41.4,29.79,South,177,10.0,25.0,29,0.00,,,0.00,WeatherTracker,2013-08-26 00:17:00,
2013-08-25 17:22:00,75.6,42.8,29.78,South,169,12.0,18.0,31,0.00,,,0.00,WeatherTracker,2013-08-26 00:22:00,
2013-08-25 17:27:00,75.0,42.3,29.79,South,180,10.0,18.0,31,0.00,,,0.00,WeatherTracker,2013-08-26 00:27:00,
2013-08-25 17:32:00,74.6,42.8,29.78,SSE,160,15.0,18.0,32,0.00,,,0.00,WeatherTracker,2013-08-26 00:32:00,
2013-08-25 17:37:00,75.2,41.6,29.79,South,172,8.0,25.0,30,0.00,,,0.00,WeatherTracker,2013-08-26 00:37:00,
2013-08-25 17:42:00,75.0,41.4,29.78,SSE,160,18.0,27.0,30,0.00,,,0.00,WeatherTracker,2013-08-26 00:42:00,
2013-08-25 17:47:00,74.1,40.7,29.78,SSE,167,15.0,27.0,30,0.00,,,0.00,WeatherTracker,2013-08-26 00:47:00,
2013-08-25 17:52:00,73.7,40.3,29.79,SSE,154,19.0,27.0,30,0.00,,,0.00,WeatherTracker,2013-08-26 00:52:00,
2013-08-25 17:57:00,73.8,40.4,29.78,SSE,160,10.0,31.0,30,0.00,,,0.00,WeatherTracker,2013-08-26 00:57:00,
2013-08-25 18:02:00,73.8,41.3,29.78,SSE,167,10.0,31.0,31,0.00,,,0.00,WeatherTracker,2013-08-26 01:02:00,
2013-08-25 18:07:00,73.7,41.2,29.78,South,175,3.0,17.0,31,0.00,,,0.00,WeatherTracker,2013-08-26 01:07:00,
2013-08-25 18:12:00,73.8,40.4,29.78,SSE,167,6.0,13.0,30,0.00,,,0.00,WeatherTracker,2013-08-26 01:12:00,
2013-08-25 18:17:00,73.1,41.5,29.78,South,172,12.0,13.0,32,0.00,,,0.00,WeatherTracker,2013-08-26 01:17:00,
2013-08-25 18:22:00,72.4,40.9,29.79,South,169,11.0,14.0,32,0.00,,,0.00,WeatherTracker,2013-08-26 01:22:00,
2013-08-25 18:28:00,72.8,40.4,29.78,SE,134,6.0,16.0,31,0.00,,,0.00,WeatherTracker,2013-08-26 01:28:00,
2013-08-25 18:33:00,72.9,41.3,29.79,South,187,11.0,20.0,32,0.00,,,0.00,WeatherTracker,2013-08-26 01:33:00,
2013-08-25 18:38:00,72.5,41.0,29.79,South,183,6.0,21.0,32,0.00,,,0.00,WeatherTracker,2013-08-26 01:38:00,
2013-08-25 18:43:00,72.0,40.5,29.79,SSE,163,5.0,21.0,32,0.00,,,0.00,WeatherTracker,2013-08-26 01:43:00,
2013-08-25 18:48:00,71.6,40.2,29.79,SE,144,7.0,12.0,32,0.00,,,0.00,WeatherTracker,2013-08-26 01:48:00,
2013-08-25 18:53:00,71.6,40.2,29.79,South,169,11.0,13.0,32,0.00,,,0.00,WeatherTracker,2013-08-26 01:53:00,
2013-08-25 18:58:00,70.5,40.8,29.79,SE,141,6.0,15.0,34,0.00,,,0.00,WeatherTracker,2013-08-26 01:58:00,
2013-08-25 19:03:00,70.0,40.3,29.79,South,189,7.0,15.0,34,0.00,,,0.00,WeatherTracker,2013-08-26 02:03:00,
2013-08-25 19:08:00,70.7,40.9,29.80,SSE,168,4.0,17.0,34,0.00,,,0.00,WeatherTracker,2013-08-26 02:08:00,
2013-08-25 19:13:00,70.1,41.2,29.80,South,170,5.0,17.0,35,0.00,,,0.00,WeatherTracker,2013-08-26 02:13:00,
2013-08-25 19:18:00,69.6,40.7,29.80,SSE,150,7.0,12.0,35,0.00,,,0.00,WeatherTracker,2013-08-26 02:18:00,
2013-08-25 19:23:00,68.0,41.4,29.80,South,175,6.0,10.0,38,0.00,,,0.00,WeatherTracker,2013-08-26 02:23:00,
2013-08-25 19:28:00,68.1,40.8,29.80,SSE,151,1.0,13.0,37,0.00,,,0.00,WeatherTracker,2013-08-26 02:28:00,
2013-08-25 19:33:00,67.6,40.4,29.81,ESE,118,2.0,13.0,37,0.00,,,0.00,WeatherTracker,2013-08-26 02:33:00,
2013-08-25 19:38:00,68.6,40.6,29.81,South,172,5.0,13.0,36,0.00,,,0.00,WeatherTracker,2013-08-26 02:38:00,
2013-08-25 19:44:00,67.8,40.6,29.81,South,169,3.0,13.0,37,0.00,,,0.00,WeatherTracker,2013-08-26 02:44:00,
2013-08-25 19:49:00,67.2,40.7,29.82,SE,133,4.0,13.0,38,0.00,,,0.00,WeatherTracker,2013-08-26 02:49:00,
2013-08-25 19:54:00,67.1,40.6,29.82,SE,146,4.0,9.0,38,0.00,,,0.00,WeatherTracker,2013-08-26 02:54:00,
2013-08-25 19:59:00,67.0,41.2,29.82,SE,146,2.0,5.0,39,0.00,,,0.00,WeatherTracker,2013-08-26 02:59:00,
2013-08-25 20:04:00,65.3,41.0,29.82,SE,132,4.0,6.0,41,0.00,,,0.00,WeatherTracker,2013-08-26 03:04:00,
2013-08-25 20:09:00,64.6,41.0,29.82,SE,143,3.0,6.0,42,0.00,,,0.00,WeatherTracker,2013-08-26 03:09:00,
2013-08-25 20:14:00,64.3,41.3,29.82,SE,126,2.0,6.0,43,0.00,,,0.00,WeatherTracker,2013-08-26 03:14:00,
2013-08-25 20:19:00,64.0,41.6,29.82,SSE,147,2.0,6.0,44,0.00,,,0.00,WeatherTracker,2013-08-26 03:19:00,
2013-08-25 20:24:00,62.7,41.6,29.83,SSE,162,5.0,6.0,46,0.00,,,0.00,WeatherTracker,2013-08-26 03:24:00,
2013-08-25 20:29:00,62.4,41.9,29.83,South,173,5.0,12.0,47,0.00,,,0.00,WeatherTracker,2013-08-26 03:29:00,
2013-08-25 20:34:00,62.0,42.1,29.83,South,181,3.0,12.0,48,0.00,,,0.00,WeatherTracker,2013-08-26 03:34:00,
2013-08-25 20:39:00,61.0,41.7,29.84,South,185,5.0,9.0,49,0.00,,,0.00,WeatherTracker,2013-08-26 03:39:00,
2013-08-25 20:44:00,60.9,41.6,29.84,South,171,5.0,8.0,49,0.00,,,0.00,WeatherTracker,2013-08-26 03:44:00,
2013-08-25 20:49:00,61.4,41.5,29.84,South,177,2.0,10.0,48,0.00,,,0.00,WeatherTracker,2013-08-26 03:49:00,
2013-08-25 20:54:00,60.4,41.7,29.84,South,178,3.0,10.0,50,0.00,,,0.00,WeatherTracker,2013-08-26 03:54:00,
2013-08-25 20:59:00,59.6,41.4,29.85,SE,131,3.0,5.0,51,0.00,,,0.00,WeatherTracker,2013-08-26 03:59:00,
2013-08-25 21:01:00,59.6,41.4,29.85,SE,130,3.0,5.0,51,0.00,,,0.00,WeatherTracker,2013-08-26 04:01:00,
2013-08-25 21:02:00,59.6,42.0,29.85,SE,138,2.0,5.0,52,0.00,,,0.00,WeatherTracker,2013-08-26 04:02:00,
2013-08-25 21:07:00,58.8,42.2,29.85,South,177,1.0,6.0,54,0.00,,,0.00,WeatherTracker,2013-08-26 04:07:00,
2013-08-25 21:12:00,58.0,42.4,29.85,SSE,154,3.0,6.0,56,0.00,,,0.00,WeatherTracker,2013-08-26 04:12:00,
2013-08-25 21:17:00,58.2,42.1,29.85,SSE,147,4.0,9.0,55,0.00,,,0.00,WeatherTracker,2013-08-26 04:17:00,
2013-08-25 21:22:00,58.4,42.3,29.86,SSE,149,3.0,9.0,55,0.00,,,0.00,WeatherTracker,2013-08-26 04:22:00,
2013-08-25 21:27:00,56.6,42.4,29.86,SW,214,8.0,9.0,59,0.00,,,0.00,WeatherTracker,2013-08-26 04:27:00,
2013-08-25 21:32:00,58.7,42.6,29.86,SSE,160,2.0,11.0,55,0.00,,,0.00,WeatherTracker,2013-08-26 04:32:00,
2013-08-25 21:38:00,59.2,42.6,29.86,SE,133,2.0,11.0,54,0.00,,,0.00,WeatherTracker,2013-08-26 04:38:00,
2013-08-25 21:43:00,58.0,42.9,29.86,SSE,168,1.0,10.0,57,0.00,,,0.00,WeatherTracker,2013-08-26 04:43:00,
2013-08-25 21:48:00,56.4,42.7,29.86,South,174,3.0,5.0,60,0.00,,,0.00,WeatherTracker,2013-08-26 04:48:00,
2013-08-25 21:53:00,56.3,42.6,29.86,SE,145,2.0,5.0,60,0.00,,,0.00,WeatherTracker,2013-08-26 04:53:00,
2013-08-25 21:58:00,55.6,42.4,29.86,SSE,158,6.0,7.0,61,0.00,,,0.00,WeatherTracker,2013-08-26 04:58:00,
2013-08-25 22:03:00,57.5,42.8,29.86,SE,126,6.0,9.0,58,0.00,,,0.00,WeatherTracker,2013-08-26 05:03:00,
2013-08-25 22:08:00,57.8,43.1,29.86,SSE,154,3.0,9.0,58,0.00,,,0.00,WeatherTracker,2013-08-26 05:08:00,
2013-08-25 22:13:00,56.8,43.1,29.86,SSE,160,3.0,7.0,60,0.00,,,0.00,WeatherTracker,2013-08-26 05:13:00,
2013-08-25 22:18:00,56.1,42.8,29.86,SSE,159,2.0,5.0,61,0.00,,,0.00,WeatherTracker,2013-08-26 05:18:00,
2013-08-25 22:23:00,55.5,42.7,29.86,South,169,4.0,5.0,62,0.00,,,0.00,WeatherTracker,2013-08-26 05:23:00,
2013-08-25 22:28:00,55.4,42.6,29.87,South,169,2.0,5.0,62,0.00,,,0.00,WeatherTracker,2013-08-26 05:28:00,
2013-08-25 22:33:00,56.0,42.7,29.87,SE,137,3.0,5.0,61,0.00,,,0.00,WeatherTracker,2013-08-26 05:33:00,
2013-08-25 22:38:00,56.6,42.9,29.87,SSE,150,4.0,7.0,60,0.00,,,0.00,WeatherTracker,2013-08-26 05:38:00,
2013-08-25 22:43:00,56.9,42.7,29.87,SE,131,3.0,9.0,59,0.00,,,0.00,WeatherTracker,2013-08-26 05:43:00,
2013-08-25 22:48:00,56.6,42.9,29.87,SSE,159,4.0,9.0,60,0.00,,,0.00,WeatherTracker,2013-08-26 05:48:00,
2013-08-25 22:53:00,56.0,42.7,29.87,South,171,5.0,7.0,61,0.00,,,0.00,WeatherTracker,2013-08-26 05:53:00,
2013-08-25 22:58:00,56.5,42.8,29.87,SSE,156,4.0,8.0,60,0.00,,,0.00,WeatherTracker,2013-08-26 05:58:00,
2013-08-25 23:03:00,56.6,42.9,29.87,SSE,164,4.0,10.0,60,0.00,,,0.00,WeatherTracker,2013-08-26 06:03:00,
2013-08-25 23:09:00,56.0,42.7,29.87,SSE,150,2.0,10.0,61,0.00,,,0.00,WeatherTracker,2013-08-26 06:09:00,
2013-08-25 23:14:00,56.1,42.8,29.87,SE,139,4.0,6.0,61,0.00,,,0.00,WeatherTracker,2013-08-26 06:14:00,
2013-08-25 23:19:00,56.1,42.8,29.87,South,174,3.0,6.0,61,0.00,,,0.00,WeatherTracker,2013-08-26 06:19:00,
2013-08-25 23:24:00,55.9,42.6,29.87,SSE,150,1.0,6.0,61,0.00,,,0.00,WeatherTracker,2013-08-26 06:24:00,
2013-08-25 23:29:00,55.9,43.1,29.87,SE,144,4.0,6.0,62,0.00,,,0.00,WeatherTracker,2013-08-26 06:29:00,
2013-08-25 23:34:00,55.5,42.7,29.87,SE,146,2.0,7.0,62,0.00,,,0.00,WeatherTracker,2013-08-26 06:34:00,
2013-08-25 23:39:00,56.2,42.9,29.87,SSE,160,1.0,7.0,61,0.00,,,0.00,WeatherTracker,2013-08-26 06:39:00,
2013-08-25 23:44:00,56.8,43.1,29.87,SSE,152,4.0,6.0,60,0.00,,,0.00,WeatherTracker,2013-08-26 06:44:00,
2013-08-25 23:49:00,56.1,42.8,29.87,SSE,157,3.0,6.0,61,0.00,,,0.00,WeatherTracker,2013-08-26 06:49:00,
2013-08-25 23:54:00,55.3,42.5,29.87,SE,140,3.0,6.0,62,0.00,,,0.00,WeatherTracker,2013-08-26 06:54:00,
2013-08-25 23:59:00,56.2,42.1,29.87,SE,144,5.0,6.0,59,0.00,,,0.00,WeatherTracker,2013-08-26 06:59:00,